Location: Unspecified
(0.0000°N, 0.0000°E)
Time: 15:35:36
(UTC+00:00)

Vanguard 2 - Pass Details

Date: 15 December 2017
Orbit: 553 x 2939 km, 32.9° (Epoch: 21 April)

Event Time Altitude Azimuth Distance (km) Brightness Sun altitude
Rises 22:05:41 0° 318° (NW) 2,808 - -54.6°
Reaches altitude 10° 22:07:44 10° 324° (NW) 2,016 - -55.0°
Maximum altitude 22:12:05 46° 39° (NE) 1,045 - -55.7°
Drops below altitude 10° 22:18:32 10° 111° (ESE) 2,978 - -56.9°
Sets 22:22:10 0° 116° (ESE) 4,334 - -57.5°
